Location: Chassagnes
(44.4047°N, 4.1657°E)
Time: 11:44:27
(UTC+00:00)

Cosmos 2297 Rocket - Pass Details

Date: 27 October 2020
Orbit: 838 x 845 km, 71.0° (Epoch: 23 November)

Event Time Altitude Azimuth Distance (km) Brightness Sun altitude
Rises 18:01:16 0° 334° (NNW) 3,414 5.7 -15.2°
Reaches altitude 10° 18:03:43 10° 334° (NNW) 2,474 4.9 -15.6°
Maximum altitude 18:09:25 88° 246° (WSW) 851 2.2 -16.6°
Drops below altitude 10° 18:15:04 10° 158° (SSE) 2,456 4.4 -17.7°
Sets 18:17:30 0° 158° (SSE) 3,386 5.1 -18.1°
